Starlink 31854

operational
NORAD ID: 59671 Int'l Des: 2024-084 Owner: SPXS Country: US Constellation: starlink
LEOCIRCULAR

关于 Starlink 31854

正在加载描述...

实时位置

正在加载3D地球...

即将过境

高度历史

Altitude vs Time

uPlot chart will show altitude changes over time

两行轨道根数

1 59671U 24084T 25259.45871472 .00001156 00000-0 51514-4 0 9990
2 59671 43.0004 272.7313 0001035 270.7786 89.2947 15.27587974 78089
Epoch: Sep 16, 2025 • Age: 24 hours

当前状态

高度 486.9 km
速度 7.63 km/s
星下点 43.09°N, 167.45°W
发射日期 May 6, 2024
运行时间 1.3 years
类型 internet

技术详情

分类 Payload
质量 730.00 kg
干质量 700.00 kg
总质量 730.00 kg
长度 0.30 m
直径 4.10 m
跨度 29.00 m
形状 Box + pan
制造商 SPXS
平台类型 Starlink V2M
阶段状态 In Orbit
所有者/国家 SPXS/US

大型星座

Loading constellations...